Regional Weather Roundup
Issued by NWS

Home | Current Version | Previous Version | Graphics & Text | Print | Product List | Glossary On
Versions: 1 2 3 4 5 6 7 8 9 10 11 12 13 14 15 16 17 18 19 20 21 22 23 24 25 26
000
ASUS45 KSLC 262310
RWRUT

UTAH REGIONAL WEATHER ROUNDUP
NATIONAL WEATHER SERVICE SALT LAKE CITY UT
500 PM MDT WED JUL 26 2017

UTZ001>011-023>025-270000-

NORTHERN UTAH

CITY           SKY/WX    TMP DP  RH WIND       PRES   REMARKS
BRIGHAM CITY   SUNNY     86  47  25 W3        30.12F
HILL AFB       SUNNY     83  53  35 N5        30.16F
LOGAN          SUNNY     84  56  38 CALM      30.13F
OGDEN          SUNNY     85  52  32 VRB5      30.12F
SALT LAKE CITY MOSUNNY   88  58  36 N8        30.11F
TOOELE VALLEY  SUNNY     86  55  35 N8        30.11F
WENDOVER       SUNNY     89  50  26 SE12      30.10F
HEBER CITY     SUNNY     82  52  34 W6        30.20F
WEST JORDAN    SUNNY     83  63  49 CALM      30.15F

$$

UTZ011>015-024>027-270000-

CENTRAL/NORTHEAST UTAH

CITY           SKY/WX    TMP DP  RH WIND       PRES   REMARKS
PROVO AIRPORT  SUNNY     86  55  34 NW7       30.14F
MOAB/CANYONLAN MOSUNNY   89  57  33 SW7       30.11F
DELTA          SUNNY     88  45  22 CALM      30.13F
PRICE          PTSUNNY   82  57  42 S7        30.23F
RICHFIELD      PTSUNNY   84  55  37 N6        30.18F
ROOSEVELT      CLOUDY    77  59  53 N13       30.22S
VERNAL         CLOUDY    80  53  39 NW14      30.20S

$$

UTZ013>016-019>022-027-270000-

SOUTHERN UTAH

CITY           SKY/WX    TMP DP  RH WIND       PRES   REMARKS
BRYCE CANYON   PTSUNNY   75  47  36 W6        30.39F
CEDAR CITY     MOSUNNY   85  56  37 SW8       30.21F
MILFORD        MOSUNNY   90  50  25 SW13G18   30.14F
ST GEORGE      CLEAR     92  62  36 N6        30.03F HX  92
HANKSVILLE     MOSUNNY   90  52  27 S7        30.14F
KANAB          SUNNY     88  55  33 SE2       30.20F
BLANDING       PTSUNNY   81  50  34 N12       30.29F

$$

REGIONAL REPORTS     COLORADO/ARIZONA

CITY           SKY/WX    TMP DP  RH WIND       PRES   REMARKS
CRAIG, CO      CLOUDY    75  57  53 CALM      30.27S
GRAND JUNCTION SUNNY     89  59  36 W12       30.14F
RIFLE, CO      CLOUDY    83  60  45 S6        30.19F
MONTROSE, CO   SUNNY     85  57  38 N10       30.20F
CORTEZ, CO     SUNNY     87  53  31 W9        30.21F
COLORADO CITY    N/A     88  57  35 CALM      30.22F
PAGE, AZ       SUNNY     92  52  25 N8        30.10F
GRAND CANYON   SUNNY     81  52  36 W7        30.32F
KINGMAN, AZ    SUNNY     94  57  28 VRB3      30.08F HX  92
FLAGSTAFF, AZ  MOSUNNY   78  54  43 VRB5      30.34F

$$

REGIONAL REPORTS    NEVADA/IDAHO/WYOMING

CITY           SKY/WX    TMP DP  RH WIND       PRES   REMARKS
LAS VEGAS, NV  MOSUNNY   99  61  28 E10       29.95F HX  99
ELY, NY          N/A    N/A N/A N/A MISG      30.35R
ELKO, NV       MOSUNNY   91  37  15 W8        30.11F
POCATELLO, ID  CLOUDY    78  61  55 E12       30.15S
BURLEY, ID     MOSUNNY   80  52  37 W9        30.11R
FORT BRIDGER,  CLOUDY    73  56  56 CALM      30.35F
EVANSTON, WY   CLOUDY    74  51  44 NW12      30.32F
ROCK SPRINGS,  CLOUDY    64  58  80 NE6       30.34S
KEMMERER, WY     N/A     75  46  35 NW3       30.34F

$$




USA.gov is the U.S. government's official web portal to all federal, state and local government web resources and services.